Location: Newark
(39.2833°N, 16.3333°E)
Time: 01:14:52
(UTC+00:00)

Envisat - Pass Details

Date: 29 October 2019
Orbit: 764 x 766 km, 98.1° (Epoch: 19 November)

Event Time Altitude Azimuth Distance (km) Brightness Sun altitude
Rises 18:34:31 0° 222° (SW) 3,220 6.7 -30.9°
Reaches altitude 10° 18:39:39 10° 267° (W) 2,303 6.3 -31.9°
Maximum altitude 18:40:02 10° 271° (W) 2,298 6.3 -31.9°
Drops below altitude 10° 18:40:25 10° 276° (W) 2,304 6.3 -32.0°
Sets 18:45:36 0° 321° (NW) 3,238 6.9 -33.0°
